PRIVATE WETTERSTATION BILLIGHEIM-ALLFELD                       ZURCK
Wetterdaten: Montag, 04.12.2017
Datum Zeit Temp. A. Temp. A. min Temp. A. max Feuchte A. Luftdruck Regen Wind Richtung Richtung Sonnenschein ET Solar Taupunkt Windchill Windben Empfang
04.12.2017 00:00 -1,2 C -1,2 C -1,2 C 91 % 1027,0 hPa 0,0 l/m 6,4 km/h (2 Bft) W-SW 247 0 min 0,000 mm 0 W/m -2,5 C -1,2 C 19,3 km/h (3 Bft) 98 %
04.12.2017 00:10 -1,1 C -1,2 C -1,1 C 91 % 1027,0 hPa 0,0 l/m 4,8 km/h (1 Bft) W 270 0 min 0,000 mm 0 W/m -2,4 C -1,1 C 17,7 km/h (3 Bft) 97 %
04.12.2017 00:20 -1,1 C -1,1 C -1,1 C 91 % 1027,1 hPa 0,2 l/m 3,2 km/h (1 Bft) W 270 0 min 0,000 mm 0 W/m -2,4 C -1,1 C 9,7 km/h (2 Bft) 98 %
04.12.2017 00:30 -1,1 C -1,1 C -1,1 C 91 % 1027,1 hPa 0,0 l/m 6,4 km/h (2 Bft) W 270 0 min 0,000 mm 0 W/m -2,4 C -1,1 C 20,9 km/h (4 Bft) 97 %
04.12.2017 00:40 -1,1 C -1,1 C -1,1 C 91 % 1027,4 hPa 0,0 l/m 8,0 km/h (2 Bft) W 270 0 min 0,000 mm 0 W/m -2,4 C -2,8 C 22,5 km/h (4 Bft) 98 %
04.12.2017 00:50 -1,1 C -1,1 C -1,1 C 91 % 1027,4 hPa 0,0 l/m 6,4 km/h (2 Bft) W-SW 247 0 min 0,000 mm 0 W/m -2,4 C -1,1 C 19,3 km/h (3 Bft) 97 %
04.12.2017 01:00 -1,0 C -1,1 C -1,0 C 91 % 1027,3 hPa 0,0 l/m 6,4 km/h (2 Bft) W-SW 247 0 min 0,000 mm 0 W/m -2,3 C -1,0 C 20,9 km/h (4 Bft) 98 %
04.12.2017 01:10 -0,9 C -1,0 C -0,9 C 91 % 1027,4 hPa 0,0 l/m 3,2 km/h (1 Bft) W-NW 292 0 min 0,000 mm 0 W/m -2,2 C -0,9 C 11,3 km/h (2 Bft) 97 %
04.12.2017 01:20 -0,9 C -0,9 C -0,9 C 91 % 1027,4 hPa 0,1 l/m 6,4 km/h (2 Bft) W-SW 247 0 min 0,000 mm 0 W/m -2,2 C -0,9 C 24,1 km/h (4 Bft) 97 %
04.12.2017 01:30 -0,9 C -0,9 C -0,9 C 91 % 1027,3 hPa 0,0 l/m 4,8 km/h (1 Bft) W 270 0 min 0,000 mm 0 W/m -2,2 C -0,9 C 16,1 km/h (3 Bft) 98 %
04.12.2017 01:40 -0,9 C -0,9 C -0,8 C 91 % 1027,4 hPa 0,0 l/m 4,8 km/h (1 Bft) W 270 0 min 0,000 mm 0 W/m -2,2 C -0,9 C 14,5 km/h (3 Bft) 97 %
04.12.2017 01:50 -0,9 C -0,9 C -0,9 C 91 % 1027,4 hPa 0,0 l/m 6,4 km/h (2 Bft) W 270 0 min 0,000 mm 0 W/m -2,2 C -0,9 C 16,1 km/h (3 Bft) 98 %
04.12.2017 02:00 -0,9 C -0,9 C -0,9 C 91 % 1027,4 hPa 0,0 l/m 3,2 km/h (1 Bft) W 270 0 min 0,000 mm 0 W/m -2,2 C -0,9 C 11,3 km/h (2 Bft) 97 %
04.12.2017 02:10 -0,9 C -0,9 C -0,9 C 91 % 1027,5 hPa 0,0 l/m 3,2 km/h (1 Bft) W-SW 247 0 min 0,000 mm 0 W/m -2,2 C -0,9 C 11,3 km/h (2 Bft) 97 %
04.12.2017 02:20 -0,9 C -0,9 C -0,9 C 91 % 1027,6 hPa 0,0 l/m 3,2 km/h (1 Bft) W-SW 247 0 min 0,000 mm 0 W/m -2,2 C -0,9 C 14,5 km/h (3 Bft) 98 %
04.12.2017 02:30 -0,9 C -1,0 C -0,9 C 91 % 1027,8 hPa 0,0 l/m 4,8 km/h (1 Bft) W-SW 247 0 min 0,000 mm 0 W/m -2,2 C -0,9 C 14,5 km/h (3 Bft) 97 %
04.12.2017 02:40 -1,0 C -1,0 C -0,9 C 91 % 1027,8 hPa 0,0 l/m 3,2 km/h (1 Bft) W-SW 247 0 min 0,000 mm 0 W/m -2,3 C -1,0 C 16,1 km/h (3 Bft) 98 %
04.12.2017 02:50 -0,9 C -1,0 C -0,9 C 91 % 1027,9 hPa 0,0 l/m 4,8 km/h (1 Bft) W 270 0 min 0,000 mm 0 W/m -2,2 C -0,9 C 17,7 km/h (3 Bft) 97 %
04.12.2017 03:00 -0,9 C -0,9 C -0,9 C 91 % 1027,8 hPa 0,0 l/m 4,8 km/h (1 Bft) W 270 0 min 0,000 mm 0 W/m -2,2 C -0,9 C 17,7 km/h (3 Bft) 98 %
04.12.2017 03:10 -0,8 C -0,9 C -0,8 C 91 % 1027,9 hPa 0,0 l/m 4,8 km/h (1 Bft) W 270 0 min 0,000 mm 0 W/m -2,1 C -0,8 C 16,1 km/h (3 Bft) 97 %
04.12.2017 03:20 -0,8 C -0,8 C -0,8 C 91 % 1028,0 hPa 0,0 l/m 6,4 km/h (2 Bft) W 270 0 min 0,000 mm 0 W/m -2,1 C -0,8 C 17,7 km/h (3 Bft) 98 %
04.12.2017 03:30 -0,8 C -0,8 C -0,8 C 91 % 1027,9 hPa 0,0 l/m 4,8 km/h (1 Bft) W 270 0 min 0,000 mm 0 W/m -2,1 C -0,8 C 14,5 km/h (3 Bft) 98 %
04.12.2017 03:40 -0,8 C -0,8 C -0,8 C 91 % 1028,0 hPa 0,1 l/m 6,4 km/h (2 Bft) W 270 0 min 0,000 mm 0 W/m -2,1 C -0,8 C 17,7 km/h (3 Bft) 97 %
04.12.2017 03:50 -0,8 C -0,8 C -0,8 C 91 % 1027,9 hPa 0,0 l/m 6,4 km/h (2 Bft) W 270 0 min 0,000 mm 0 W/m -2,1 C -0,8 C 17,7 km/h (3 Bft) 98 %
04.12.2017 04:00 -0,8 C -0,8 C -0,8 C 91 % 1028,0 hPa 0,0 l/m 3,2 km/h (1 Bft) W 270 0 min 0,000 mm 0 W/m -2,1 C -0,8 C 11,3 km/h (2 Bft) 97 %
04.12.2017 04:10 -0,7 C -0,8 C -0,7 C 91 % 1028,0 hPa 0,0 l/m 0,0 km/h (0 Bft) W 270 0 min 0,000 mm 0 W/m -2,0 C -0,7 C 3,2 km/h (1 Bft) 98 %
04.12.2017 04:20 -0,6 C -0,7 C -0,6 C 91 % 1028,0 hPa 0,0 l/m 3,2 km/h (1 Bft) SW 225 0 min 0,000 mm 0 W/m -1,9 C -0,6 C 9,7 km/h (2 Bft) 97 %
04.12.2017 04:30 -0,6 C -0,7 C -0,6 C 91 % 1028,0 hPa 0,0 l/m 4,8 km/h (1 Bft) W 270 0 min 0,000 mm 0 W/m -1,9 C -0,6 C 14,5 km/h (3 Bft) 88 %
04.12.2017 04:40 -0,6 C -0,6 C -0,6 C 91 % 1028,0 hPa 0,0 l/m 4,8 km/h (1 Bft) W 270 0 min 0,000 mm 0 W/m -1,9 C -0,6 C 16,1 km/h (3 Bft) 98 %
04.12.2017 04:50 -0,6 C -0,6 C -0,6 C 91 % 1028,0 hPa 0,0 l/m 4,8 km/h (1 Bft) W-SW 247 0 min 0,000 mm 0 W/m -1,9 C -0,6 C 11,3 km/h (2 Bft) 97 %
04.12.2017 05:00 -0,7 C -0,7 C -0,6 C 91 % 1028,0 hPa 0,0 l/m 4,8 km/h (1 Bft) W-SW 247 0 min 0,000 mm 0 W/m -2,0 C -0,7 C 16,1 km/h (3 Bft) 98 %
04.12.2017 05:10 -0,7 C -0,7 C -0,7 C 91 % 1028,0 hPa 0,0 l/m 4,8 km/h (1 Bft) W-SW 247 0 min 0,000 mm 0 W/m -2,0 C -0,7 C 17,7 km/h (3 Bft) 97 %
04.12.2017 05:20 -0,7 C -0,7 C -0,7 C 91 % 1028,1 hPa 0,0 l/m 6,4 km/h (2 Bft) W 270 0 min 0,000 mm 0 W/m -2,0 C -0,7 C 17,7 km/h (3 Bft) 98 %
04.12.2017 05:30 -0,7 C -0,8 C -0,7 C 91 % 1028,1 hPa 0,0 l/m 3,2 km/h (1 Bft) W 270 0 min 0,000 mm 0 W/m -2,0 C -0,7 C 14,5 km/h (3 Bft) 97 %
04.12.2017 05:40 -0,8 C -0,8 C -0,7 C 91 % 1028,3 hPa 0,0 l/m 4,8 km/h (1 Bft) W-SW 247 0 min 0,000 mm 0 W/m -2,1 C -0,8 C 16,1 km/h (3 Bft) 98 %
04.12.2017 05:50 -0,7 C -0,8 C -0,7 C 91 % 1028,3 hPa 0,0 l/m 6,4 km/h (2 Bft) W 270 0 min 0,000 mm 0 W/m -2,0 C -0,7 C 19,3 km/h (3 Bft) 97 %
04.12.2017 06:00 -0,7 C -0,7 C -0,7 C 91 % 1028,5 hPa 0,0 l/m 8,0 km/h (2 Bft) W 270 0 min 0,000 mm 0 W/m -2,0 C -2,4 C 24,1 km/h (4 Bft) 88 %
04.12.2017 06:10 -0,7 C -0,7 C -0,7 C 91 % 1028,4 hPa 0,0 l/m 3,2 km/h (1 Bft) W 270 0 min 0,000 mm 0 W/m -2,0 C -0,7 C 14,5 km/h (3 Bft) 98 %
04.12.2017 06:20 -0,7 C -0,7 C -0,7 C 91 % 1028,5 hPa 0,0 l/m 4,8 km/h (1 Bft) W 270 0 min 0,000 mm 0 W/m -2,0 C -0,7 C 17,7 km/h (3 Bft) 97 %
04.12.2017 06:30 -0,7 C -0,7 C -0,7 C 91 % 1028,6 hPa 0,2 l/m 4,8 km/h (1 Bft) W-SW 247 0 min 0,000 mm 0 W/m -2,0 C -0,7 C 14,5 km/h (3 Bft) 98 %
04.12.2017 06:40 -0,7 C -0,7 C -0,7 C 91 % 1028,6 hPa 0,0 l/m 4,8 km/h (1 Bft) W 270 0 min 0,000 mm 0 W/m -2,0 C -0,7 C 14,5 km/h (3 Bft) 97 %
04.12.2017 06:50 -0,7 C -0,7 C -0,7 C 91 % 1028,6 hPa 0,0 l/m 4,8 km/h (1 Bft) W 270 0 min 0,000 mm 0 W/m -2,0 C -0,7 C 17,7 km/h (3 Bft) 98 %
04.12.2017 07:00 -0,7 C -0,7 C -0,7 C 91 % 1028,6 hPa 0,0 l/m 4,8 km/h (1 Bft) W-SW 247 0 min 0,000 mm 0 W/m -2,0 C -0,7 C 16,1 km/h (3 Bft) 98 %
04.12.2017 07:10 -0,6 C -0,7 C -0,6 C 91 % 1028,8 hPa 0,0 l/m 6,4 km/h (2 Bft) W 270 0 min 0,000 mm 0 W/m -1,9 C -0,6 C 19,3 km/h (3 Bft) 98 %
04.12.2017 07:20 -0,6 C -0,6 C -0,6 C 91 % 1028,7 hPa 0,0 l/m 4,8 km/h (1 Bft) W-SW 247 0 min 0,000 mm 0 W/m -1,9 C -0,6 C 14,5 km/h (3 Bft) 98 %
04.12.2017 07:30 -0,5 C -0,6 C -0,5 C 91 % 1028,8 hPa 0,0 l/m 3,2 km/h (1 Bft) SW 225 0 min 0,000 mm 0 W/m -1,8 C -0,5 C 14,5 km/h (3 Bft) 97 %
04.12.2017 07:40 -0,5 C -0,6 C -0,5 C 91 % 1028,9 hPa 0,0 l/m 4,8 km/h (1 Bft) W 270 0 min 0,000 mm 0 W/m -1,8 C -0,5 C 16,1 km/h (3 Bft) 98 %
04.12.2017 07:50 -0,5 C -0,5 C -0,5 C 91 % 1029,2 hPa 0,0 l/m 3,2 km/h (1 Bft) W-SW 247 0 min 0,000 mm 0 W/m -1,8 C -0,5 C 17,7 km/h (3 Bft) 97 %
04.12.2017 08:00 -0,5 C -0,5 C -0,4 C 91 % 1029,4 hPa 0,0 l/m 6,4 km/h (2 Bft) W-SW 247 0 min 0,000 mm 0 W/m -1,8 C -0,5 C 20,9 km/h (4 Bft) 98 %
04.12.2017 08:10 -0,5 C -0,5 C -0,5 C 91 % 1029,6 hPa 0,0 l/m 3,2 km/h (1 Bft) W-SW 247 0 min 0,000 mm 0 W/m -1,8 C -0,5 C 11,3 km/h (2 Bft) 98 %
04.12.2017 08:20 -0,5 C -0,5 C -0,5 C 91 % 1029,4 hPa 0,0 l/m 4,8 km/h (1 Bft) W 270 0 min 0,000 mm 0 W/m -1,8 C -0,5 C 16,1 km/h (3 Bft) 97 %
04.12.2017 08:30 -0,6 C -0,6 C -0,5 C 91 % 1029,7 hPa 0,0 l/m 6,4 km/h (2 Bft) SW 225 0 min 0,000 mm 0 W/m -1,9 C -0,6 C 20,9 km/h (4 Bft) 98 %
04.12.2017 08:40 -0,6 C -0,6 C -0,5 C 91 % 1029,6 hPa 0,0 l/m 4,8 km/h (1 Bft) W-SW 247 0 min 0,000 mm 0 W/m -1,9 C -0,6 C 17,7 km/h (3 Bft) 97 %
04.12.2017 08:50 -0,5 C -0,6 C -0,5 C 91 % 1029,5 hPa 0,0 l/m 6,4 km/h (2 Bft) W-SW 247 0 min 0,000 mm 0 W/m -1,8 C -0,5 C 24,1 km/h (4 Bft) 98 %
04.12.2017 09:00 -0,4 C -0,5 C -0,4 C 91 % 1029,7 hPa 0,0 l/m 6,4 km/h (2 Bft) W-SW 247 0 min 0,000 mm 0 W/m -1,7 C -0,4 C 17,7 km/h (3 Bft) 97 %
04.12.2017 09:10 -0,3 C -0,4 C -0,3 C 91 % 1029,8 hPa 0,0 l/m 4,8 km/h (1 Bft) W 270 0 min 0,000 mm 7 W/m -1,6 C -0,3 C 12,9 km/h (3 Bft) 98 %
04.12.2017 09:20 -0,3 C -0,3 C -0,3 C 91 % 1029,7 hPa 0,0 l/m 9,7 km/h (2 Bft) SW 225 0 min 0,000 mm 9 W/m -1,6 C -3,5 C 22,5 km/h (4 Bft) 98 %
04.12.2017 09:30 -0,3 C -0,3 C -0,3 C 91 % 1029,8 hPa 0,0 l/m 4,8 km/h (1 Bft) W-SW 247 0 min 0,000 mm 7 W/m -1,6 C -0,3 C 19,3 km/h (3 Bft) 98 %
04.12.2017 09:40 -0,3 C -0,3 C -0,3 C 91 % 1029,8 hPa 0,0 l/m 4,8 km/h (1 Bft) SW 225 0 min 0,000 mm 7 W/m -1,6 C -0,3 C 16,1 km/h (3 Bft) 98 %
04.12.2017 09:50 -0,3 C -0,3 C -0,3 C 91 % 1030,2 hPa 0,0 l/m 4,8 km/h (1 Bft) W 270 0 min 0,000 mm 7 W/m -1,6 C -0,3 C 14,5 km/h (3 Bft) 97 %
04.12.2017 10:00 -0,2 C -0,3 C -0,2 C 91 % 1030,2 hPa 0,0 l/m 6,4 km/h (2 Bft) W-SW 247 0 min 0,000 mm 9 W/m -1,5 C -0,2 C 14,5 km/h (3 Bft) 98 %
04.12.2017 10:10 -0,1 C -0,2 C -0,1 C 91 % 1030,3 hPa 0,0 l/m 6,4 km/h (2 Bft) W-SW 247 0 min 0,000 mm 9 W/m -1,4 C -0,1 C 24,1 km/h (4 Bft) 97 %
04.12.2017 10:20 -0,1 C -0,2 C -0,1 C 91 % 1030,5 hPa 0,0 l/m 4,8 km/h (1 Bft) W 270 0 min 0,000 mm 9 W/m -1,4 C -0,1 C 12,9 km/h (3 Bft) 97 %
04.12.2017 10:30 0,0 C -0,1 C 0,0 C 91 % 1030,5 hPa 0,0 l/m 6,4 km/h (2 Bft) W 270 0 min 0,000 mm 11 W/m -1,3 C 0,0 C 20,9 km/h (4 Bft) 98 %
04.12.2017 10:40 0,0 C 0,0 C 0,1 C 91 % 1030,4 hPa 0,0 l/m 3,2 km/h (1 Bft) W-SW 247 0 min 0,000 mm 14 W/m -1,3 C 0,0 C 16,1 km/h (3 Bft) 98 %
04.12.2017 10:50 0,1 C 0,0 C 0,1 C 91 % 1030,6 hPa 0,0 l/m 3,2 km/h (1 Bft) W-SW 247 0 min 0,000 mm 16 W/m -1,2 C 0,1 C 11,3 km/h (2 Bft) 98 %
04.12.2017 11:00 0,1 C 0,1 C 0,1 C 91 % 1030,4 hPa 0,0 l/m 4,8 km/h (1 Bft) W-SW 247 0 min 0,000 mm 16 W/m -1,2 C 0,1 C 12,9 km/h (3 Bft) 98 %
04.12.2017 11:10 0,1 C 0,1 C 0,1 C 91 % 1030,5 hPa 0,1 l/m 4,8 km/h (1 Bft) W 270 0 min 0,000 mm 16 W/m -1,2 C 0,1 C 16,1 km/h (3 Bft) 98 %
04.12.2017 11:20 0,1 C 0,1 C 0,1 C 91 % 1030,5 hPa 0,0 l/m 8,0 km/h (2 Bft) W 270 0 min 0,000 mm 12 W/m -1,2 C -1,5 C 19,3 km/h (3 Bft) 97 %
04.12.2017 11:30 0,1 C 0,0 C 0,1 C 91 % 1030,5 hPa 0,0 l/m 9,7 km/h (2 Bft) W 270 0 min 0,000 mm 14 W/m -1,2 C -3,1 C 22,5 km/h (4 Bft) 97 %
04.12.2017 11:40 0,1 C 0,0 C 0,1 C 91 % 1030,4 hPa 0,0 l/m 4,8 km/h (1 Bft) W-SW 247 0 min 0,000 mm 12 W/m -1,2 C 0,1 C 19,3 km/h (3 Bft) 97 %
04.12.2017 11:50 0,1 C 0,1 C 0,1 C 91 % 1030,6 hPa 0,0 l/m 4,8 km/h (1 Bft) W 270 0 min 0,000 mm 14 W/m -1,2 C 0,1 C 16,1 km/h (3 Bft) 98 %
04.12.2017 12:00 0,2 C 0,1 C 0,2 C 91 % 1030,4 hPa 0,0 l/m 4,8 km/h (1 Bft) W 270 0 min 0,000 mm 18 W/m -1,1 C 0,2 C 17,7 km/h (3 Bft) 98 %
04.12.2017 12:10 0,3 C 0,1 C 0,3 C 91 % 1030,3 hPa 0,0 l/m 2,6 km/h (1 Bft) W 274 0 min 0,000 mm 14 W/m -1,0 C 0,3 C 9,7 km/h (2 Bft) 99 %
04.12.2017 12:20 0,3 C 0,3 C 0,3 C 91 % 1030,4 hPa 0,0 l/m 4,8 km/h (1 Bft) W-NW 300 0 min 0,000 mm 14 W/m -1,0 C 0,3 C 16,1 km/h (3 Bft) 99 %
04.12.2017 12:30 0,3 C 0,3 C 0,3 C 91 % 1030,3 hPa 0,0 l/m 5,0 km/h (1 Bft) W 276 0 min 0,000 mm 19 W/m -1,0 C 0,3 C 16,1 km/h (3 Bft) 99 %
04.12.2017 12:40 0,3 C 0,3 C 0,3 C 91 % 1030,5 hPa 0,0 l/m 4,8 km/h (1 Bft) W 270 0 min 0,000 mm 23 W/m -1,0 C 0,3 C 17,7 km/h (3 Bft) 98 %
04.12.2017 12:50 0,3 C 0,3 C 0,3 C 91 % 1030,3 hPa 0,0 l/m 4,4 km/h (1 Bft) W-SW 252 0 min 0,000 mm 19 W/m -1,0 C 0,3 C 11,3 km/h (2 Bft) 99 %
04.12.2017 13:00 0,4 C 0,3 C 0,4 C 91 % 1030,4 hPa 0,0 l/m 6,2 km/h (2 Bft) W-NW 298 0 min 0,000 mm 16 W/m -0,9 C 0,4 C 17,7 km/h (3 Bft) 100 %
04.12.2017 13:10 0,4 C 0,4 C 0,4 C 91 % 1030,5 hPa 0,0 l/m 6,3 km/h (2 Bft) W 263 0 min 0,000 mm 18 W/m -0,9 C 0,4 C 19,3 km/h (3 Bft) 97 %
04.12.2017 13:20 0,4 C 0,4 C 0,4 C 91 % 1030,5 hPa 0,0 l/m 6,3 km/h (2 Bft) W-NW 297 0 min 0,000 mm 18 W/m -0,9 C 0,4 C 20,9 km/h (4 Bft) 93 %
04.12.2017 13:30 0,4 C 0,4 C 0,4 C 91 % 1030,4 hPa 0,0 l/m 8,1 km/h (2 Bft) W 263 0 min 0,000 mm 18 W/m -0,9 C -1,3 C 20,9 km/h (4 Bft) 99 %
04.12.2017 13:40 0,4 C 0,4 C 0,4 C 91 % 1030,7 hPa 0,0 l/m 8,5 km/h (2 Bft) SW 224 0 min 0,000 mm 23 W/m -0,9 C -1,7 C 22,5 km/h (4 Bft) 99 %
04.12.2017 13:50 0,4 C 0,4 C 0,4 C 91 % 1030,6 hPa 0,0 l/m 10,2 km/h (2 Bft) W-SW 252 0 min 0,000 mm 19 W/m -0,9 C -3,2 C 22,5 km/h (4 Bft) 100 %
04.12.2017 14:00 0,3 C 0,3 C 0,4 C 91 % 1030,7 hPa 0,0 l/m 9,6 km/h (2 Bft) W 265 0 min 0,000 mm 19 W/m -1,0 C -2,8 C 24,1 km/h (4 Bft) 100 %
04.12.2017 14:10 0,3 C 0,3 C 0,4 C 91 % 1030,7 hPa 0,0 l/m 8,4 km/h (2 Bft) W-NW 284 0 min 0,000 mm 23 W/m -1,0 C -1,7 C 20,9 km/h (4 Bft) 99 %
04.12.2017 14:20 0,3 C 0,3 C 0,3 C 91 % 1030,7 hPa 0,0 l/m 6,1 km/h (2 Bft) W-SW 257 0 min 0,000 mm 16 W/m -1,0 C 0,3 C 17,7 km/h (3 Bft) 100 %
04.12.2017 14:30 0,3 C 0,3 C 0,3 C 91 % 1030,7 hPa 0,0 l/m 7,3 km/h (2 Bft) W-SW 258 0 min 0,000 mm 14 W/m -1,0 C -0,6 C 19,3 km/h (3 Bft) 99 %
04.12.2017 14:40 0,3 C 0,3 C 0,3 C 91 % 1030,6 hPa 0,0 l/m 7,4 km/h (2 Bft) W-SW 249 0 min 0,000 mm 14 W/m -1,0 C -0,7 C 20,9 km/h (4 Bft) 99 %
04.12.2017 14:50 0,3 C 0,3 C 0,3 C 91 % 1030,7 hPa 0,0 l/m 4,3 km/h (1 Bft) W-NW 287 0 min 0,000 mm 9 W/m -1,0 C 0,3 C 12,9 km/h (3 Bft) 99 %
04.12.2017 15:00 0,4 C 0,3 C 0,4 C 91 % 1030,5 hPa 0,0 l/m 3,8 km/h (1 Bft) W 263 0 min 0,000 mm 11 W/m -0,9 C 0,4 C 16,1 km/h (3 Bft) 100 %
04.12.2017 15:10 0,4 C 0,4 C 0,4 C 91 % 1030,9 hPa 0,0 l/m 4,7 km/h (1 Bft) W 273 0 min 0,000 mm 12 W/m -0,9 C 0,4 C 17,7 km/h (3 Bft) 100 %
04.12.2017 15:20 0,5 C 0,4 C 0,5 C 91 % 1030,6 hPa 0,0 l/m 3,4 km/h (1 Bft) W-SW 258 0 min 0,000 mm 14 W/m -0,8 C 0,5 C 16,1 km/h (3 Bft) 100 %
04.12.2017 15:30 0,5 C 0,5 C 0,5 C 91 % 1030,6 hPa 0,0 l/m 5,8 km/h (2 Bft) W-SW 250 0 min 0,000 mm 26 W/m -0,8 C 0,5 C 16,1 km/h (3 Bft) 91 %
04.12.2017 15:40 0,5 C 0,5 C 0,5 C 91 % 1030,6 hPa 0,0 l/m 5,1 km/h (1 Bft) W 272 0 min 0,000 mm 21 W/m -0,8 C 0,5 C 14,5 km/h (3 Bft) 99 %
04.12.2017 15:50 0,5 C 0,4 C 0,5 C 91 % 1031,0 hPa 0,0 l/m 3,7 km/h (1 Bft) W 264 0 min 0,000 mm 9 W/m -0,8 C 0,5 C 16,1 km/h (3 Bft) 100 %
04.12.2017 16:00 0,5 C 0,5 C 0,5 C 91 % 1031,1 hPa 0,0 l/m 2,9 km/h (1 Bft) SW 236 0 min 0,000 mm 5 W/m -0,8 C 0,5 C 19,3 km/h (3 Bft) 100 %
04.12.2017 16:10 0,5 C 0,5 C 0,5 C 91 % 1031,0 hPa 0,0 l/m 2,8 km/h (1 Bft) SW 223 0 min 0,000 mm 0 W/m -0,8 C 0,5 C 9,7 km/h (2 Bft) 91 %
04.12.2017 16:20 0,5 C 0,5 C 0,5 C 91 % 1031,3 hPa 0,0 l/m 5,3 km/h (1 Bft) SW 236 0 min 0,000 mm 0 W/m -0,8 C 0,5 C 14,5 km/h (3 Bft) 100 %
04.12.2017 16:30 0,6 C 0,5 C 0,6 C 91 % 1031,2 hPa 0,0 l/m 6,0 km/h (2 Bft) SW 229 0 min 0,000 mm 0 W/m -0,7 C 0,6 C 17,7 km/h (3 Bft) 100 %
04.12.2017 16:40 0,6 C 0,6 C 0,6 C 91 % 1031,4 hPa 0,0 l/m 6,7 km/h (2 Bft) W-SW 251 0 min 0,000 mm 0 W/m -0,7 C 0,3 C 16,1 km/h (3 Bft) 100 %
04.12.2017 16:50 0,7 C 0,6 C 0,7 C 91 % 1031,5 hPa 0,0 l/m 4,7 km/h (1 Bft) SW 232 0 min 0,000 mm 0 W/m -0,6 C 0,7 C 12,9 km/h (3 Bft) 99 %
04.12.2017 17:00 0,6 C 0,6 C 0,7 C 91 % 1031,5 hPa 0,0 l/m 5,7 km/h (1 Bft) W-SW 248 0 min 0,000 mm 0 W/m -0,7 C 0,6 C 16,1 km/h (3 Bft) 99 %
04.12.2017 17:10 0,6 C 0,6 C 0,6 C 91 % 1031,7 hPa 0,0 l/m 4,6 km/h (1 Bft) W-SW 256 0 min 0,000 mm 0 W/m -0,7 C 0,6 C 16,1 km/h (3 Bft) 100 %
04.12.2017 17:20 0,6 C 0,6 C 0,6 C 91 % 1031,8 hPa 0,0 l/m 3,3 km/h (1 Bft) SW 233 0 min 0,000 mm 0 W/m -0,7 C 0,6 C 9,7 km/h (2 Bft) 99 %
04.12.2017 17:30 0,6 C 0,6 C 0,6 C 91 % 1031,9 hPa 0,0 l/m 2,1 km/h (1 Bft) SW 225 0 min 0,000 mm 0 W/m -0,7 C 0,6 C 8,0 km/h (2 Bft) 100 %
04.12.2017 17:40 0,6 C 0,6 C 0,6 C 91 % 1032,0 hPa 0,0 l/m 2,3 km/h (1 Bft) W-SW 246 0 min 0,000 mm 0 W/m -0,7 C 0,6 C 8,0 km/h (2 Bft) 99 %
04.12.2017 17:50 0,6 C 0,6 C 0,6 C 91 % 1032,0 hPa 0,0 l/m 2,5 km/h (1 Bft) W 263 0 min 0,000 mm 0 W/m -0,7 C 0,6 C 9,7 km/h (2 Bft) 98 %
04.12.2017 18:01 0,7 C 0,6 C 0,7 C 91 % 1032,0 hPa 0,0 l/m 5,5 km/h (1 Bft) W 264 0 min 0,000 mm 0 W/m -0,6 C 0,7 C 11,3 km/h (2 Bft) 98 %
04.12.2017 18:10 0,8 C 0,7 C 0,8 C 91 % 1032,0 hPa 0,0 l/m 3,9 km/h (1 Bft) W-SW 254 0 min 0,000 mm 0 W/m -0,5 C 0,8 C 17,7 km/h (3 Bft) 97 %
04.12.2017 18:20 0,8 C 0,8 C 0,8 C 91 % 1032,0 hPa 0,0 l/m 5,5 km/h (1 Bft) W 277 0 min 0,000 mm 0 W/m -0,5 C 0,8 C 17,7 km/h (3 Bft) 98 %
04.12.2017 18:30 0,8 C 0,8 C 0,8 C 91 % 1032,1 hPa 0,0 l/m 5,2 km/h (1 Bft) W 271 0 min 0,000 mm 0 W/m -0,5 C 0,8 C 12,9 km/h (3 Bft) 97 %
04.12.2017 18:40 0,8 C 0,8 C 0,8 C 91 % 1032,2 hPa 0,0 l/m 7,2 km/h (2 Bft) W 261 0 min 0,000 mm 0 W/m -0,5 C -0,0 C 20,9 km/h (4 Bft) 97 %
04.12.2017 18:50 0,8 C 0,7 C 0,8 C 91 % 1032,4 hPa 0,0 l/m 6,7 km/h (2 Bft) W 277 0 min 0,000 mm 0 W/m -0,5 C 0,5 C 17,7 km/h (3 Bft) 98 %
04.12.2017 19:00 0,8 C 0,8 C 0,8 C 91 % 1032,4 hPa 0,0 l/m 8,1 km/h (2 Bft) W-SW 252 0 min 0,000 mm 0 W/m -0,5 C -0,9 C 17,7 km/h (3 Bft) 96 %
04.12.2017 19:10 0,9 C 0,8 C 0,9 C 91 % 1032,5 hPa 0,0 l/m 5,8 km/h (2 Bft) W-SW 258 0 min 0,000 mm 0 W/m -0,4 C 0,9 C 14,5 km/h (3 Bft) 97 %
04.12.2017 19:20 0,9 C 0,9 C 0,9 C 91 % 1032,7 hPa 0,0 l/m 6,7 km/h (2 Bft) W-NW 296 0 min 0,000 mm 0 W/m -0,4 C 0,6 C 24,1 km/h (4 Bft) 97 %
04.12.2017 19:30 1,0 C 0,9 C 1,0 C 91 % 1032,8 hPa 0,0 l/m 5,1 km/h (1 Bft) W-SW 256 0 min 0,000 mm 0 W/m -0,3 C 1,0 C 16,1 km/h (3 Bft) 98 %
04.12.2017 19:40 1,0 C 0,9 C 1,1 C 91 % 1032,9 hPa 0,0 l/m 4,6 km/h (1 Bft) W 263 0 min 0,000 mm 0 W/m -0,3 C 1,0 C 14,5 km/h (3 Bft) 98 %
04.12.2017 19:50 1,0 C 1,0 C 1,1 C 91 % 1033,0 hPa 0,0 l/m 4,6 km/h (1 Bft) W-SW 256 0 min 0,000 mm 0 W/m -0,3 C 1,0 C 14,5 km/h (3 Bft) 98 %
04.12.2017 20:00 1,0 C 1,0 C 1,1 C 91 % 1033,1 hPa 0,0 l/m 6,5 km/h (2 Bft) W 261 0 min 0,000 mm 0 W/m -0,3 C 0,9 C 16,1 km/h (3 Bft) 97 %
04.12.2017 20:10 0,9 C 0,9 C 1,0 C 91 % 1033,2 hPa 0,0 l/m 6,7 km/h (2 Bft) W 275 0 min 0,000 mm 0 W/m -0,4 C 0,6 C 16,1 km/h (3 Bft) 99 %
04.12.2017 20:20 0,9 C 0,9 C 0,9 C 91 % 1033,2 hPa 0,0 l/m 4,9 km/h (1 Bft) W-NW 293 0 min 0,000 mm 0 W/m -0,4 C 0,9 C 14,5 km/h (3 Bft) 98 %
04.12.2017 20:30 0,9 C 0,9 C 0,9 C 91 % 1033,1 hPa 0,0 l/m 3,1 km/h (1 Bft) W 267 0 min 0,000 mm 0 W/m -0,4 C 0,9 C 14,5 km/h (3 Bft) 97 %
04.12.2017 20:40 0,9 C 0,9 C 0,9 C 91 % 1033,2 hPa 0,0 l/m 4,1 km/h (1 Bft) W 259 0 min 0,000 mm 0 W/m -0,4 C 0,9 C 16,1 km/h (3 Bft) 89 %
04.12.2017 20:50 1,0 C 0,9 C 1,0 C 91 % 1033,3 hPa 0,0 l/m 6,1 km/h (2 Bft) SW 225 0 min 0,000 mm 0 W/m -0,3 C 1,0 C 17,7 km/h (3 Bft) 98 %
04.12.2017 21:00 1,0 C 0,9 C 1,1 C 91 % 1033,3 hPa 0,0 l/m 5,3 km/h (1 Bft) W 271 0 min 0,000 mm 0 W/m -0,3 C 1,0 C 14,5 km/h (3 Bft) 98 %
04.12.2017 21:10 1,1 C 1,0 C 1,1 C 91 % 1033,4 hPa 0,0 l/m 4,8 km/h (1 Bft) W-NW 292 0 min 0,000 mm 0 W/m -0,2 C 1,1 C 19,3 km/h (3 Bft) 99 %
04.12.2017 21:20 1,1 C 1,1 C 1,1 C 91 % 1033,3 hPa 0,0 l/m 4,8 km/h (1 Bft) W 270 0 min 0,000 mm 0 W/m -0,2 C 1,1 C 16,1 km/h (3 Bft) 100 %
04.12.2017 21:30 1,1 C 1,1 C 1,1 C 91 % 1033,4 hPa 0,0 l/m 6,4 km/h (2 Bft) W 270 0 min 0,000 mm 0 W/m -0,2 C 1,1 C 17,7 km/h (3 Bft) 100 %
04.12.2017 21:40 1,1 C 1,1 C 1,1 C 91 % 1033,4 hPa 0,0 l/m 6,4 km/h (2 Bft) W 270 0 min 0,000 mm 0 W/m -0,2 C 1,1 C 20,9 km/h (4 Bft) 100 %
04.12.2017 21:50 1,2 C 1,1 C 1,2 C 91 % 1033,5 hPa 0,0 l/m 4,8 km/h (1 Bft) W 270 0 min 0,000 mm 0 W/m -0,1 C 1,2 C 14,5 km/h (3 Bft) 99 %
04.12.2017 22:00 1,2 C 1,2 C 1,2 C 91 % 1033,7 hPa 0,0 l/m 4,8 km/h (1 Bft) W 270 0 min 0,000 mm 0 W/m -0,1 C 1,2 C 16,1 km/h (3 Bft) 100 %
04.12.2017 22:10 1,3 C 1,2 C 1,3 C 91 % 1033,9 hPa 0,0 l/m 1,6 km/h (1 Bft) W 270 0 min 0,000 mm 0 W/m -0,0 C 1,3 C 9,7 km/h (2 Bft) 99 %
04.12.2017 22:20 1,4 C 1,3 C 1,4 C 91 % 1033,8 hPa 0,0 l/m 4,8 km/h (1 Bft) W 270 0 min 0,000 mm 0 W/m 0,1 C 1,4 C 17,7 km/h (3 Bft) 100 %
04.12.2017 22:30 1,4 C 1,4 C 1,4 C 91 % 1034,0 hPa 0,0 l/m 4,8 km/h (1 Bft) W 270 0 min 0,000 mm 0 W/m 0,1 C 1,4 C 17,7 km/h (3 Bft) 100 %
04.12.2017 22:40 1,4 C 1,4 C 1,4 C 91 % 1034,1 hPa 0,0 l/m 4,8 km/h (1 Bft) W-NW 292 0 min 0,000 mm 0 W/m 0,1 C 1,4 C 14,5 km/h (3 Bft) 100 %
04.12.2017 22:50 1,4 C 1,4 C 1,4 C 91 % 1034,1 hPa 0,0 l/m 3,2 km/h (1 Bft) W-NW 292 0 min 0,000 mm 0 W/m 0,1 C 1,4 C 17,7 km/h (3 Bft) 100 %
04.12.2017 23:00 1,4 C 1,4 C 1,4 C 91 % 1034,3 hPa 0,0 l/m 4,8 km/h (1 Bft) W-NW 292 0 min 0,000 mm 0 W/m 0,1 C 1,4 C 16,1 km/h (3 Bft) 99 %
04.12.2017 23:10 1,4 C 1,4 C 1,4 C 91 % 1034,3 hPa 0,0 l/m 8,0 km/h (2 Bft) W 270 0 min 0,000 mm 0 W/m 0,1 C -0,2 C 20,9 km/h (4 Bft) 99 %
04.12.2017 23:20 1,4 C 1,4 C 1,4 C 91 % 1034,3 hPa 0,0 l/m 6,4 km/h (2 Bft) W 270 0 min 0,000 mm 0 W/m 0,1 C 1,4 C 20,9 km/h (4 Bft) 99 %
04.12.2017 23:30 1,4 C 1,4 C 1,4 C 91 % 1034,6 hPa 0,0 l/m 4,8 km/h (1 Bft) W 270 0 min 0,000 mm 0 W/m 0,1 C 1,4 C 17,7 km/h (3 Bft) 100 %
04.12.2017 23:40 1,4 C 1,4 C 1,4 C 91 % 1034,6 hPa 0,0 l/m 3,2 km/h (1 Bft) W 270 0 min 0,000 mm 0 W/m 0,1 C 1,4 C 9,7 km/h (2 Bft) 99 %
04.12.2017 23:50 1,4 C 1,4 C 1,4 C 91 % 1034,6 hPa 0,0 l/m 4,8 km/h (1 Bft) W-SW 247 0 min 0,000 mm 0 W/m 0,1 C 1,4 C 14,5 km/h (3 Bft) 98 %
_ Min-Zeit 00:00 00:00 00:00 00:00 00:00 - 04:10 - - - - - 00:00 09:20 04:10 06:00
Minimum _ -1,2 C -1,2 C -1,2 C 91 % 1027,0 hPa - 0,0 km/h (0 Bft) - - - - - -2,5 C -3,5 C 3,2 km/h (1 Bft) 88 %
_ Max-Zeit 22:20 22:30 22:20 00:00 23:30 00:20 13:50 - - 00:00 00:00 15:30 22:20 23:20 01:20 13:00
Maximum _ 1,4 C 1,4 C 1,4 C 91 % 1034,6 hPa 0,2 l/m 10,2 km/h
W-SW (2 Bft)
- - 0 min 0,000 mm 26 W/m 0,1 C 1,4 C 24,1 km/h
W-SW (4 Bft)
100 %
Durchschnitt _ 0,1 C 0,0 C 0,1 C 91 % 1030,4 hPa #0,7 l/m 5,2 km/h (1 Bft) W - #0 min. #0,000 mm 14 W/m -1,2 C -0,1 C 16,4 km/h (3 Bft) 98 %
PRIVATE WETTERSTATION BILLIGHEIM-ALLFELD - www.neckar-odenwald-wetter.de - Holger Sonntag